Location: Newark
(25.4297°S, 49.2719°W)
Time: 14:01:18
(UTC+00:00)

A-11 Canister half - All Passes

Search period start: 18 November 2019 00:00
Search period end: 28 November 2019 00:00
Orbit: 1527 x 1682 km, 47.3° (Epoch: 17 November)

Date Brightness Start Highest point End Pass type
(mag) Time Alt. Az. Time Alt. Az. Time Alt. Az.
18 Nov - 01:55:01 10° NW 02:04:22 87° NE 02:14:00 10° SE visible
18 Nov - 04:02:08 10° W 04:10:18 32° SSW 04:18:44 10° SE visible
18 Nov - 06:12:05 10° SW 06:18:36 19° S 06:25:15 10° SE visible
18 Nov - 08:18:28 10° SW 08:27:00 31° SSE 08:35:40 10° E daylight
18 Nov - 10:23:05 10° SW 10:33:11 88° SE 10:43:23 10° NE daylight
18 Nov - 12:30:17 10° WSW 12:37:35 23° NW 12:44:56 10° N daylight
18 Nov - 23:33:15 10° NNE 23:38:43 17° NE 23:44:11 10° E night (unlit)
19 Nov - 01:33:26 10° NW 01:42:45 82° NE 01:52:21 10° SE visible
19 Nov - 03:40:19 10° W 03:48:34 33° SSW 03:57:04 10° SE visible
19 Nov - 05:50:17 10° SW 05:56:46 19° S 06:03:24 10° SE visible
19 Nov - 07:56:51 10° SSW 08:05:15 30° SSE 08:13:47 10° E visible
19 Nov - 10:01:27 10° SW 10:11:31 84° SE 10:21:43 10° NE daylight
19 Nov - 12:08:22 10° WSW 12:15:58 25° NW 12:23:38 10° N daylight
19 Nov - 23:12:12 10° NNE 23:17:08 15° ENE 23:22:04 10° E visible
20 Nov - 01:11:51 10° NW 01:21:08 78° NE 01:30:41 10° SE visible
20 Nov - 03:18:30 10° W 03:26:50 34° SSW 03:35:26 10° SE visible
20 Nov - 05:28:29 10° SW 05:34:57 19° S 05:41:34 10° SE visible
20 Nov - 07:35:14 10° SSW 07:43:28 29° SSE 07:51:52 10° E visible
20 Nov - 09:39:48 10° SW 09:49:51 80° SE 10:00:02 10° NE daylight
20 Nov - 11:46:29 10° WSW 11:54:22 27° NW 12:02:18 10° N daylight
20 Nov - 22:51:16 10° NNE 22:55:34 14° ENE 22:59:52 10° E visible
21 Nov - 00:50:16 10° NW 00:59:31 74° NE 01:09:00 10° SE visible
21 Nov - 02:56:42 10° W 03:05:07 36° SSW 03:13:48 10° SE visible
21 Nov - 05:06:40 10° SW 05:13:08 19° S 05:19:45 10° SE visible
21 Nov - 07:13:35 10° SSW 07:21:43 28° SSE 07:29:57 10° ESE visible
21 Nov - 09:18:10 10° SW 09:28:10 76° SE 09:38:20 10° NE daylight
21 Nov - 11:24:37 10° WSW 11:32:45 29° NW 11:40:57 10° N daylight
21 Nov - 22:30:28 10° NE 22:33:59 13° ENE 22:37:30 10° E visible
22 Nov - 00:28:43 10° NW 00:37:55 69° NE 00:47:20 10° SE visible
22 Nov - 02:34:55 10° W 02:43:25 37° SSW 02:52:10 10° SE visible
22 Nov - 04:44:51 10° SW 04:51:20 19° S 04:57:57 10° SE visible
22 Nov - 06:51:59 10° SSW 06:59:56 27° SSE 07:08:02 10° ESE visible
22 Nov - 08:56:32 10° SW 09:06:30 73° SE 09:16:37 10° NE daylight
22 Nov - 11:02:46 10° WSW 11:11:08 31° NW 11:19:34 10° N daylight
22 Nov - 22:09:58 10° NE 22:12:24 11° ENE 22:14:51 10° ENE visible
23 Nov - 00:07:10 10° NNW 00:16:19 65° NE 00:25:39 10° SE visible
23 Nov - 02:13:08 10° W 02:21:42 39° SSW 02:30:31 10° SE visible
23 Nov - 04:23:01 10° SW 04:29:31 20° S 04:36:09 10° SE visible
23 Nov - 06:30:20 10° SSW 06:38:09 26° SSE 06:46:07 10° ESE visible
23 Nov - 08:34:56 10° SW 08:44:49 69° SE 08:54:54 10° ENE daylight
23 Nov - 10:40:58 10° WSW 10:49:30 33° NW 10:58:10 10° N daylight
23 Nov - 23:45:37 10° NNW 23:54:44 61° NE 00:03:58 10° SE visible
24 Nov - 01:51:22 10° W 02:00:00 41° SSW 02:08:53 10° SE visible
24 Nov - 04:01:11 10° SW 04:07:42 20° S 04:14:22 10° SE visible
24 Nov - 06:08:42 10° SSW 06:16:23 25° SSE 06:24:11 10° ESE visible
24 Nov - 08:13:18 10° SW 08:23:08 66° SE 08:33:11 10° ENE daylight
24 Nov - 10:19:10 10° WSW 10:27:53 35° NW 10:36:44 10° N daylight
24 Nov - 23:24:05 10° NNW 23:33:07 58° NE 23:42:17 10° SE visible
25 Nov - 01:29:35 10° WNW 01:38:18 43° SSW 01:47:16 10° SE visible
25 Nov - 03:39:21 10° SW 03:45:54 20° S 03:52:36 10° SE visible
25 Nov - 05:47:04 10° SSW 05:54:35 24° SSE 06:02:16 10° ESE visible
25 Nov - 07:51:40 10° SW 08:01:27 62° SE 08:11:25 10° ENE visible
25 Nov - 09:57:24 10° WSW 10:06:16 38° NW 10:15:16 10° N daylight
25 Nov - 23:02:34 10° NNW 23:11:32 54° NE 23:20:35 10° ESE visible
26 Nov - 01:07:50 10° WNW 01:16:37 45° SW 01:25:38 10° SE visible
26 Nov - 03:17:30 10° SW 03:24:06 20° S 03:30:50 10° SE visible
26 Nov - 05:25:25 10° SSW 05:32:48 24° SSE 05:40:19 10° ESE visible
26 Nov - 07:30:04 10° SW 07:39:46 59° SE 07:49:40 10° ENE visible
26 Nov - 09:35:38 10° WSW 09:44:38 40° NW 09:53:48 10° NNE daylight
26 Nov - 22:41:04 10° NNW 22:49:56 51° NE 22:58:53 10° ESE visible
27 Nov - 00:46:05 10° WNW 00:54:56 47° SW 01:04:00 10° SE visible
27 Nov - 02:55:39 10° WSW 03:02:18 21° SSW 03:09:06 10° SE visible
27 Nov - 05:03:46 10° SSW 05:11:01 23° SSE 05:18:23 10° ESE visible
27 Nov - 07:08:28 10° SW 07:18:04 56° SE 07:27:54 10° ENE visible
27 Nov - 09:13:53 10° WSW 09:23:01 43° NW 09:32:19 10° NNE daylight
27 Nov - 22:19:35 10° NNW 22:28:21 47° NE 22:37:10 10° ESE visible
